STARLINK-30107, 56287

Orbit data source: Space-Track

STARLINK-30107, 56287 is a payload satellite owned by SpaceX/Seattle (US) in LEO that was launched on Wed, 19 Apr 2023 UTC via an FALCON 9 launch vehicle from the Air Force Eastern Test Range (AFETR). Payload-class satellites include a variety of spacecraft equipped with specific instruments for various scientific and technological missions. These include communications satellites like Starlink; space stations such as the ISS; scientific satellites like the Hubble; Earth observation satellites from companies like Planet Labs, Umbra, and HawkEye 360; GPS; miniature CubeSats for education and research; and military/defense satellites.

Loading next visibility...
Identifier
56287, 2023-056B
Orbit
LEO
Last TLE update
14 hours ago
Origin
Manufacturer
SpaceX/Seattle
Mission
Operational Commercial Communications
Bus & Motor
STARLINK V2M, Unknown motor
Mass
730 kg wet, ~700 kg dry
Launch date (UTC)
2023-04-19 (2 years ago)
Launch vehicle
FALCON 9
Launch site
Air Force Eastern Test Range (AFETR)
Object type
Payload
Rocket body
Debris
Shape & HBR
Box + 2 Pan, 29 m
Radar Cross Section
33.884 m², Large (>1 m²)

Expand to show TLE details & history

TLE from 14 hours ago
0 STARLINK-30107
1 56287U 23056B   25130.49574556  .00001398  00000-0  11852-3 0  9991
2 56287  43.0043  57.9093 0001062 284.5011  75.5714 15.02540920114460
Epoch: 2025-05-10T11:53Z
Definitive object data (Epoch: 2025-05-10T11:53:52.416Z)
Latitude
0.00002°
Longitude
10.90421°
Altitude
558.659 km
Speed
7.584 km/s
True Right ascension
03h 51m 38s
True Declination
0° 00' 00"
Sunlit
Object was in daylight at TLE epoch
Visualization TLE readout
Latitude
-26.38154°
Longitude
-24.23928°
Altitude
565.092 km
Speed
7.58 km/s
Apparent Right ascension
00h 07m 53s
Apparent Declination
-35° 00' 44"
Sunlit
Object is in daylight
Visualization observer readout
Local Sidereal Time
10:20:40
Azimuth
274.49° WNW
Elevation
-68.253°
Doppler factor
1
Orbital elements
Apogee altitude
561.725 km
Perigee altitude
560.251 km
Semi-major axis
6,939.125 km
Eccentricity
0.0001062
Inclination
43.0043°
RAAN
57.9093°
Arg. of periapsis
284.5011°
True anomaly
75.58319°
Mean anomaly
75.5714°
Eccentric anomaly
75.57729°
Mean motion
3.75479 °/min
BSTAR
0.00011852
Orbital period
95.88 mins
Loading maneuver chart data...
Loading SW <> Apogee altitude chart data...
Loading historical data...
Loading historical data...
Loading historical data...
Loading historical data...
Loading historical data...
Loading historical data...
Loading historical data...

STARLINK-30107 Visibility forecast

Observer location: undefined°, undefined°

Span
Click to sort rows by Start time (UTC) header in descending order
Start Az.
Max El. time (UTC)
Max El. Az.
Max El.
End time (UTC)
End Az.
7 mins2025-05-11 02:39:40.113Z289.123° WNW2025-05-11 02:43:40.113Z45.703° ENE43.547°2025-05-11 02:46:40.113Z98.704° ESE
6 mins2025-05-11 04:21:40.113Z265.005° W2025-05-11 04:23:40.113Z221.163° SW29.98°2025-05-11 04:27:40.113Z145.358° SSE
5 mins2025-05-11 21:36:40.113Z182.448° SSW2025-05-11 21:38:40.113Z136.583° SSE24.203°2025-05-11 21:41:40.113Z89.299° E
7 mins2025-05-11 23:15:40.113Z253.028° W2025-05-11 23:18:40.113Z324.627° NNW44.947°2025-05-11 23:22:40.113Z71.744° E
7 mins2025-05-12 00:56:40.113Z286.403° WNW2025-05-12 00:59:40.113Z5.637° NNE39.324°2025-05-12 01:03:40.113Z79.002° E
|